This is the latest recevied weather packets stored in our database for station/object W7TJC. If no packets are shown the sender has not sent any weather packets the latest 10 day(s).
| Time | Temp. | Humidity | Pressure | Rain* | Wind** | Luminosity | Snow |
|---|---|---|---|---|---|---|---|
| 1777888265 | 13.89° C | 66% | 1010.9 hPa | 0 mm | - | 0 W/m² | - |
| 1777887962 | 13.89° C | 66% | 1010.8 hPa | 0 mm | - | 0 W/m² | - |
| 1777887659 | 13.89° C | 63% | 1010.6 hPa | 0 mm | - | 0 W/m² | - |
| 1777887355 | 13.89° C | 66% | 1010.8 hPa | 0 mm | - | 0 W/m² | - |
| 1777887051 | 13.89° C | 65% | 1010.7 hPa | 0 mm | - | 0 W/m² | - |
| 1777886747 | 13.89° C | 68% | 1010.7 hPa | 0 mm | - | 0 W/m² | - |
| 1777886444 | 13.89° C | 62% | 1010.7 hPa | 0 mm | - | 0 W/m² | - |
| 1777886142 | 13.89° C | 67% | 1010.6 hPa | 0 mm | - | 0 W/m² | - |
| 1777885839 | 13.89° C | 65% | 1010.5 hPa | 0 mm | - | 0 W/m² | - |
| 1777885538 | 13.89° C | 67% | 1010.7 hPa | 0 mm | - | 0 W/m² | - |
| 1777885236 | 13.89° C | 66% | 1010.8 hPa | 0 mm | - | 0 W/m² | - |
| 1777884933 | 13.89° C | 67% | 1010.7 hPa | 0 mm | - | 0 W/m² | - |
| 1777884629 | 13.89° C | 67% | 1010.7 hPa | 0 mm | - | 0 W/m² | - |
| 1777884326 | 13.89° C | 67% | 1010.7 hPa | 0 mm | - | 0 W/m² | - |
| 1777884021 | 14.44° C | 67% | 1010.8 hPa | 0 mm | - | 0 W/m² | - |
| 1777883720 | 14.44° C | 67% | 1011 hPa | 0 mm | - | 0 W/m² | - |
| 1777883416 | 14.44° C | 68% | 1011 hPa | 0 mm | - | 0 W/m² | - |
| 1777883112 | 14.44° C | 66% | 1011 hPa | 0 mm | - | 0 W/m² | - |
| 1777882809 | 14.44° C | 65% | 1010.8 hPa | 0 mm | - | 0 W/m² | - |
| 1777882506 | 14.44° C | 62% | 1010.6 hPa | 0 mm | - | 0 W/m² | - |
| 1777882201 | 14.44° C | 65% | 1011 hPa | 0 mm | - | 0 W/m² | - |
| 1777881898 | 14.44° C | 68% | 1010.8 hPa | 0 mm | - | 0 W/m² | - |
| 1777881595 | 15° C | 65% | 1010.9 hPa | 0 mm | - | 0 W/m² | - |
| 1777881292 | 15° C | 63% | 1010.6 hPa | 0 mm | - | 0 W/m² | - |
| 1777880989 | 15.56° C | 62% | 1010.9 hPa | 0 mm | - | 0 W/m² | - |
* Rain latest hour (hover to see other rain measurements)
** Current wind speed in m/s (hover to see current wind gust speed)